Zurück zum Katalog

STARLINK-32197

AktivKommunikationVLEO
NORAD 60416·PAYLOAD·🇺🇸 United States

Gestartet Aug 10, 2024 von Cape Canaveral Space Force Station

Loading…

Nächste Überflüge (nächste 24 Stunden)

TLE

AktuellSource: CelesTrak SupGP

Epoche: Sep 14, 2026, 21:16 UTC

1 60416C 24141U   26257.88659722  .00019679  00000+0  63301-3 0  2572
2 60416  53.1586  72.4968 0001274  85.3939   7.7694 15.31683091    15

Verfolge STARLINK-32197 in Echtzeit mit AllMySat

Download on the App Store